Regional Weather Roundup
Issued by NWS

Home | Current Version | Previous Version | Text Only | Print | Product List | Glossary Off
Versions: 1 2 3 4 5 6 7 8 9 10 11 12 13 14 15 16 17 18 19 20 21 22 23 24 25 26 27 28 29 30 31 32 33 34 35 36 37 38 39 40 41 42 43 44 45 46 47 48 49 50

000
ASUS44 KMEG 110100
RWRTN
TENNESSEE HOURLY STATE WEATHER ROUNDUP
NATIONAL WEATHER SERVICE MEMPHIS TN
700 PM CST SAT DEC 10 2016

TNZ002-004-019-021-049-052-054-088>092-110200-
WEST TENNESSEE

CITY           SKY/WX    TMP DP  RH WIND       PRES   REMARKS
MEMPHIS INTL   CLOUDY    40  16  37 SE6       30.38F
NWS MEMPHIS      N/A     38 N/A N/A MISG        N/A
JACKSON        CLEAR     32  16  51 S3        30.41S
DYERSBURG      CLOUDY    37  16  41 SE12      30.36F WCI  30
UNION CITY     CLOUDY    36  16  44 CALM      30.37S
PARIS          CLEAR     28  14  54 CALM      30.39F
LEXINGTON      CLEAR     28  16  59 CALM      30.41S
$$

TNZ008-025-027-028-033-062-065-066-110200-
NORTH MIDDLE TENNESSEE

CITY           SKY/WX    TMP DP  RH WIND       PRES   REMARKS
NASHVILLE      PTCLDY    34  17  50 CALM      30.44F
CLARKSVILLE    CLEAR     28  15  58 E3        30.42F
SMYRNA         CLEAR     28  19  69 CALM      30.45F
CROSSVILLE     CLEAR     30  15  53 E3        30.40S
$$

TNZ061-075-076-078-094-096-097-110200-
SOUTH MIDDLE TENNESSEE

CITY           SKY/WX    TMP DP  RH WIND       PRES   REMARKS
TULLAHOMA      CLEAR     27  16  63 CALM      30.41S
WINCHESTER     CLEAR     25  19  80 CALM      30.42S
MCMINNVILLE    CLEAR     27  19  74 CALM        N/A
SHELBYVILLE    CLEAR     28  21  74 E3        30.42F
$$

TNZ017-018-042-046-047-110200-
NORTHEAST TENNESSEE

CITY           SKY/WX    TMP DP  RH WIND       PRES   REMARKS
TRI CITIES     PTCLDY    25  18  74 CALM      30.43F
$$

TNZ012-013-036-069-073-074-110200-
CENTRAL EAST TENNESSEE

CITY           SKY/WX    TMP DP  RH WIND       PRES   REMARKS
KNOXVILLE      CLEAR     32  14  47 NE5       30.42F WCI  27
OAK RIDGE      CLEAR     30  17  58 CALM      30.45F
GATLINBURG     CLEAR     27  16  63 NE3       30.44F
$$

TNZ083-085-099-110200-
SOUTHEAST TENNESSEE

CITY           SKY/WX    TMP DP  RH WIND       PRES   REMARKS
CHATTANOOGA    CLEAR     34  18  52 CALM      30.44F
$$

SKY/WX REPORTED AS FAIR MEANS FEW OR NO CLOUDS BELOW
12 THOUSAND FEET.




USA.gov is the U.S. government's official web portal to all federal, state and local government web resources and services.